This is the latest recevied weather packets stored in our database for station/object KG7BDA. If no packets are shown the sender has not sent any weather packets the latest 10 day(s).
| Time | Temp. | Humidity | Pressure | Rain* | Wind** | Luminosity | Snow |
|---|---|---|---|---|---|---|---|
| 1777936879 | 25° C | 26% | 1005.7 hPa | 0 mm | - | - | - |
| 1777936519 | 25° C | 27% | 1005.8 hPa | 0 mm | - | - | - |
| 1777936158 | 25° C | 28% | 1005.8 hPa | 0 mm | - | - | - |
| 1777935799 | 25° C | 27% | 1005.9 hPa | 0 mm | - | - | - |
| 1777935439 | 25° C | 30% | 1006 hPa | 0 mm | - | - | - |
| 1777935079 | 25° C | 28% | 1006 hPa | 0 mm | - | - | - |
| 1777934754 | 24.44° C | 27% | 1006 hPa | 0 mm | - | - | - |
| 1777934719 | 24.44° C | 27% | 1006 hPa | 0 mm | - | - | - |
| 1777934358 | 25° C | 27% | 1006.1 hPa | 0 mm | - | - | - |
| 1777934043 | 24.44° C | 28% | 1006.3 hPa | 0 mm | - | - | - |
| 1777933999 | 24.44° C | 28% | 1006.3 hPa | 0 mm | - | - | - |
| 1777933639 | 24.44° C | 28% | 1006.3 hPa | 0 mm | - | - | - |
| 1777933278 | 24.44° C | 31% | 1006.5 hPa | 0 mm | - | - | - |
| 1777932919 | 24.44° C | 30% | 1006.6 hPa | 0 mm | - | - | - |
| 1777932559 | 23.89° C | 27% | 1006.8 hPa | 0 mm | - | - | - |
| 1777932198 | 23.89° C | 28% | 1006.9 hPa | 0 mm | - | - | - |
| 1777931839 | 23.89° C | 27% | 1007 hPa | 0 mm | - | - | - |
| 1777931478 | 23.89° C | 29% | 1006.9 hPa | 0 mm | - | - | - |
| 1777931119 | 23.89° C | 29% | 1007.1 hPa | 0 mm | - | - | - |
| 1777930759 | 23.33° C | 30% | 1007 hPa | 0 mm | - | - | - |
| 1777930398 | 23.33° C | 29% | 1007.3 hPa | 0 mm | - | - | - |
| 1777930038 | 23.33° C | 32% | 1007.4 hPa | 0 mm | - | - | - |
| 1777929679 | 23.33° C | 32% | 1007.4 hPa | 0 mm | - | - | - |
| 1777929319 | 23.33° C | 28% | 1007.5 hPa | 0 mm | - | - | - |
| 1777928958 | 23.33° C | 29% | 1007.7 hPa | 0 mm | - | - | - |
* Rain latest hour (hover to see other rain measurements)
** Current wind speed in m/s (hover to see current wind gust speed)